Location: Churchill Northern Studies Centre
(58.7378°N, 93.8201°W)
Time: 19:56:07
(UTC-05:00)

Vanguard 2 Rocket - All Passes

Search period start: 20 June 2018 00:00
Search period end: 30 June 2018 00:00
Orbit: 553 x 3328 km, 32.9° (Epoch: 19 June)

Date Brightness Start Highest point End Pass type
(mag) Time Alt. Az. Time Alt. Az. Time Alt. Az.
20 Jun - 10:51:26 10° S 11:01:48 17° SSE 11:10:53 10° ESE daylight
20 Jun - 13:02:22 10° SW 13:15:12 23° S 13:25:10 10° SE daylight
20 Jun - 15:17:53 10° WSW 15:28:05 20° SSW 15:35:49 10° SSE daylight
21 Jun - 09:53:32 10° S 10:01:40 14° SE 10:09:13 10° ESE daylight
21 Jun - 12:01:47 10° SSW 12:14:59 23° SSE 12:25:44 10° SE daylight
21 Jun - 14:15:59 10° SW 14:28:19 23° SSW 14:37:38 10° SSE daylight
21 Jun - 16:34:20 10° WSW 16:40:21 14° SW 16:45:23 10° S daylight
22 Jun - 08:59:57 10° SE 09:01:40 10° SE 09:03:22 10° SE daylight
22 Jun - 11:01:51 10° SSW 11:14:40 22° SSE 11:25:44 10° ESE daylight
22 Jun - 13:14:34 10° SW 13:28:16 25° S 13:38:54 10° SE daylight
22 Jun - 15:31:09 10° WSW 15:40:59 19° SSW 15:48:39 10° S daylight
23 Jun - 10:02:48 10° S 10:14:21 19° SSE 10:24:58 10° ESE daylight
23 Jun - 12:13:38 10° SW 12:27:57 26° S 12:39:39 10° SE daylight
23 Jun - 14:28:53 10° WSW 14:41:16 23° SSW 14:50:48 10° SSE daylight
23 Jun - 16:49:56 10° SW 16:53:00 11° SW 16:55:50 10° SSW daylight
24 Jun - 09:05:00 10° S 09:14:09 15° SE 09:23:03 10° ESE daylight
24 Jun - 11:13:18 10° SSW 11:27:31 25° SSE 11:39:53 10° ESE daylight
24 Jun - 13:27:12 10° SW 13:41:13 26° S 13:52:17 10° SE daylight
24 Jun - 15:44:58 10° WSW 15:53:43 16° SW 16:00:52 10° S daylight
25 Jun - 08:10:16 10° SE 08:14:12 11° SE 08:18:09 10° ESE daylight
25 Jun - 10:13:38 10° SSW 10:27:03 23° SSE 10:39:30 10° ESE daylight
25 Jun - 12:26:00 10° SW 12:40:53 27° S 12:53:12 10° SE daylight
25 Jun - 14:42:12 10° WSW 14:54:04 21° SSW 15:03:32 10° SSE daylight
26 Jun - 09:14:51 10° S 09:26:42 20° SSE 09:38:21 10° ESE daylight
26 Jun - 11:25:22 10° SW 11:40:22 28° S 11:53:36 10° SE daylight
26 Jun - 13:40:11 10° WSW 13:54:04 25° SSW 14:05:18 10° SSE daylight
26 Jun - 15:59:45 10° WSW 16:06:16 13° SW 16:11:56 10° SSW daylight
27 Jun - 08:17:18 10° S 08:26:33 16° SE 08:36:02 10° ESE daylight
27 Jun - 10:25:21 10° SSW 10:39:48 26° SSE 10:53:26 10° ESE daylight
27 Jun - 12:38:46 10° WSW 12:53:45 28° S 13:06:25 10° SE daylight
27 Jun - 14:55:58 10° WSW 15:06:42 18° SW 15:15:38 10° S daylight
28 Jun - 07:22:51 10° SE 07:26:42 11° SE 07:30:39 10° ESE daylight
28 Jun - 09:26:02 10° SSW 09:39:18 24° SSE 09:52:38 10° ESE daylight
28 Jun - 11:37:55 10° SW 11:53:13 29° S 12:06:58 10° SE daylight
28 Jun - 13:53:32 10° WSW 14:06:47 23° SSW 14:17:52 10° SSE daylight
29 Jun - 08:27:35 10° S 08:38:59 20° SSE 08:51:02 10° ESE daylight
29 Jun - 10:37:40 10° SW 10:52:35 28° S 11:06:58 10° ESE daylight
29 Jun - 12:51:53 10° WSW 13:06:32 26° SSW 13:19:16 10° SSE daylight
29 Jun - 15:10:32 10° WSW 15:19:10 15° SW 15:26:44 10° SSW daylight
